| time (UTC) | temp F | wind direction | speed MPH | gust MPH | rain 1hr in | rain 24hr in | rain mn in | humidity % | barometer mb |
| 20260906052830 | 75 | 45 | 2.0 | 2.0 | 0.00 | 0.18 | 0.15 | 100 | |
| 20260906052330 | 74 | 36 | 1.0 | 3.0 | 0.00 | 0.18 | 0.15 | 100 | |
| 20260906051831 | 75 | 102 | 1.0 | 3.0 | 0.00 | 0.18 | 0.15 | 100 | |
| 20260906051331 | 75 | 106 | 0.0 | 3.0 | 0.00 | 0.18 | 0.15 | 100 | |
| 20260906050831 | 75 | 70 | 1.0 | 4.0 | 0.00 | 0.18 | 0.15 | 100 | |
| 20260906050331 | 74 | 73 | 1.0 | 4.0 | 0.00 | 0.18 | 0.15 | 100 | |
| 20260906045831 | 75 | 64 | 1.0 | 4.0 | 0.00 | 0.18 | 0.15 | 100 | |
| 20260906045331 | 75 | 135 | 1.0 | 3.0 | 0.00 | 0.18 | 0.15 | 100 | |
| 20260906044831 | 75 | 60 | 2.0 | 3.0 | 0.00 | 0.18 | 0.15 | 100 | |
| 20260906044331 | 75 | 92 | 0.0 | 3.0 | 0.00 | 0.18 | 0.15 | 100 | |
| 20260906043831 | 75 | 94 | 0.0 | 3.0 | 0.00 | 0.18 | 0.15 | 100 | |
| 20260906043331 | 74 | 95 | 0.0 | 2.0 | 0.00 | 0.18 | 0.15 | 100 | |
| 20260906042831 | 75 | 150 | 0.0 | 2.0 | 0.00 | 0.18 | 0.15 | 100 | |
| 20260906042331 | 75 | 64 | 1.0 | 1.0 | 0.00 | 0.18 | 0.15 | 100 | |
| 20260906041831 | 75 | 43 | 0.0 | 1.0 | 0.00 | 0.18 | 0.15 | 100 | |
| 20260906041331 | 75 | 52 | 0.0 | 1.0 | 0.00 | 0.18 | 0.15 | 100 | |
| 20260906040831 | 75 | 106 | 0.0 | 3.0 | 0.00 | 0.18 | 0.15 | 100 | |
| 20260906040331 | 76 | 33 | 1.0 | 5.0 | 0.00 | 0.18 | 0.15 | 100 | |
| 20260906035831 | 76 | 39 | 3.0 | 6.0 | 0.00 | 0.18 | 0.15 | 100 | |
| 20260906035331 | 75 | 50 | 1.0 | 6.0 | 0.00 | 0.18 | 0.15 | 100 | |
| 20260906034831 | 76 | 82 | 3.0 | 6.0 | 0.00 | 0.18 | 0.15 | 100 | |
| 20260906034331 | 76 | 75 | 2.0 | 5.0 | 0.00 | 0.18 | 0.15 | 100 | |
| 20260906033831 | 76 | 54 | 3.0 | 5.0 | 0.00 | 0.18 | 0.15 | 100 | |
| 20260906033331 | 76 | 45 | 1.0 | 5.0 | 0.00 | 0.18 | 0.15 | 100 | |
| 20260906032831 | 76 | 101 | 2.0 | 7.0 | 0.00 | 0.18 | 0.15 | 100 | |
| 20260906032331 | 77 | 63 | 3.0 | 5.0 | 0.00 | 0.18 | 0.15 | 100 | |
| 20260906031831 | 77 | 22 | 2.0 | 4.0 | 0.00 | 0.18 | 0.15 | 100 | |
| 20260906031331 | 77 | 36 | 1.0 | 3.0 | 0.00 | 0.18 | 0.15 | 100 | |
| 20260906030831 | 77 | 59 | 2.0 | 5.0 | 0.00 | 0.18 | 0.15 | 100 | |
| 20260906030331 | 77 | 99 | 2.0 | 4.0 | 0.00 | 0.18 | 0.15 | 100 | |
| 20260906025831 | 77 | 74 | 2.0 | 5.0 | 0.00 | 0.18 | 0.15 | 100 | |
| 20260906025331 | 77 | 135 | 1.0 | 9.0 | 0.00 | 0.18 | 0.15 | 100 | |
| 20260906024831 | 78 | 74 | 2.0 | 7.0 | 0.00 | 0.18 | 0.15 | 100 | |
| 20260906024331 | 78 | 70 | 4.0 | 5.0 | 0.00 | 0.18 | 0.15 | 100 | |
| 20260906023831 | 78 | 37 | 2.0 | 3.0 | 0.00 | 0.18 | 0.15 | 100 | |
| 20260906023331 | 78 | 243 | 0.0 | 5.0 | 0.00 | 0.18 | 0.15 | 100 | |
| 20260906022831 | 78 | 66 | 3.0 | 5.0 | 0.00 | 0.18 | 0.15 | 100 | |
| 20260906022331 | 79 | 88 | 3.0 | 4.0 | 0.00 | 0.18 | 0.15 | 100 | |
| 20260906021831 | 78 | 108 | 1.0 | 1.0 | 0.00 | 0.18 | 0.15 | 100 | |
| 20260906021331 | 78 | 185 | 0.0 | 0.0 | 0.00 | 0.18 | 0.15 | 100 | |
| 20260906020831 | 79 | 185 | 0.0 | 0.0 | 0.00 | 0.18 | 0.15 | 100 | |
| 20260906020331 | 78 | 185 | 0.0 | 1.0 | 0.00 | 0.18 | 0.15 | 100 | |
| 20260906015831 | 79 | 215 | 0.0 | 1.0 | 0.00 | 0.18 | 0.15 | 100 | |
| 20260906015331 | 79 | 251 | 0.0 | 1.0 | 0.00 | 0.18 | 0.15 | 100 | |
| 20260906014831 | 79 | 189 | 1.0 | 3.0 | 0.00 | 0.18 | 0.15 | 100 | |
| 20260906014331 | 79 | 78 | 0.0 | 1.0 | 0.00 | 0.18 | 0.15 | 100 | |
| 20260906013831 | 79 | 180 | 0.0 | 1.0 | 0.00 | 0.18 | 0.15 | 100 | |
| 20260906013331 | 80 | 205 | 0.0 | 2.0 | 0.00 | 0.18 | 0.15 | 100 | |
| 20260906012831 | 80 | 81 | 0.0 | 2.0 | 0.00 | 0.18 | 0.15 | 100 | |
| 20260906012331 | 79 | 157 | 0.0 | 1.0 | 0.00 | 0.18 | 0.15 | 100 | |
| 20260906011831 | 80 | 217 | 0.0 | 3.0 | 0.00 | 0.18 | 0.15 | 100 | |
| 20260906011331 | 80 | 174 | 0.0 | 3.0 | 0.00 | 0.18 | 0.15 | 100 | |
| 20260906010831 | 80 | 236 | 0.0 | 2.0 | 0.00 | 0.18 | 0.15 | 100 | |
| 20260906010331 | 80 | 144 | 0.0 | 0.0 | 0.00 | 0.18 | 0.15 | 100 | |
| 20260906005831 | 81 | 185 | 0.0 | 1.0 | 0.00 | 0.18 | 0.15 | 100 | |
| 20260906005331 | 80 | 156 | 1.0 | 1.0 | 0.00 | 0.18 | 0.15 | 100 | |
| 20260906004831 | 81 | 146 | 0.0 | 1.0 | 0.00 | 0.18 | 0.15 | 100 | |
| 20260906004331 | 80 | 163 | 0.0 | 0.0 | 0.00 | 0.18 | 0.15 | 100 | |
| 20260906003831 | 80 | 144 | 0.0 | 0.0 | 0.00 | 0.18 | 0.15 | 100 | |
| 20260906003331 | 80 | 78 | 0.0 | 0.0 | 0.00 | 0.18 | 0.15 | 100 | |
| 20260906002831 | 82 | 78 | 0.0 | 0.0 | 0.00 | 0.18 | 0.15 | 100 | |
| 20260906002331 | 81 | 78 | 0.0 | 0.0 | 0.00 | 0.18 | 0.15 | 100 | |
| 20260906001831 | 81 | 78 | 0.0 | 0.0 | 0.00 | 0.18 | 0.15 | 100 | |
| 20260906001331 | 81 | 78 | 0.0 | 0.0 | 0.00 | 0.18 | 0.15 | 100 | |
| 20260906000831 | 82 | 108 | 0.0 | 1.0 | 0.00 | 0.18 | 0.15 | 100 | |
| 20260906000333 | 82 | 87 | 1.0 | 3.0 | 0.00 | 0.18 | 0.15 | 100 | |
| 20260905235831 | 82 | 70 | 2.0 | 4.0 | 0.00 | 0.18 | 0.15 | 100 | |
| 20260905235331 | 82 | 109 | 0.0 | 4.0 | 0.00 | 0.18 | 0.15 | 100 | |
| 20260905234831 | 82 | 82 | 3.0 | 5.0 | 0.00 | 0.18 | 0.15 | 100 | |
| 20260905234331 | 83 | 18 | 0.0 | 5.0 | 0.00 | 0.18 | 0.15 | 100 | |
| 20260905233831 | 84 | 63 | 4.0 | 7.0 | 0.00 | 0.18 | 0.15 | 100 | |
| 20260905233331 | 83 | 50 | 5.0 | 10.0 | 0.00 | 0.18 | 0.15 | 100 | |
| 20260905232831 | 84 | 165 | 4.0 | 8.0 | 0.00 | 0.18 | 0.15 | 100 | |
| 20260905232331 | 84 | 80 | 6.0 | 10.0 | 0.00 | 0.18 | 0.15 | 100 | |
| 20260905231831 | 86 | 23 | 7.0 | 10.0 | 0.00 | 0.18 | 0.15 | 100 | |
| 20260905231331 | 87 | 142 | 6.0 | 8.0 | 0.00 | 0.18 | 0.15 | 100 | |
| 20260905230831 | 86 | 63 | 5.0 | 10.0 | 0.00 | 0.18 | 0.15 | 100 | |
| 20260905230331 | 87 | 59 | 4.0 | 11.0 | 0.00 | 0.18 | 0.15 | 100 | |
| 20260905225831 | 89 | 59 | 7.0 | 12.0 | 0.00 | 0.18 | 0.15 | 100 | |
| 20260905225331 | 91 | 63 | 2.0 | 6.0 | 0.00 | 0.18 | 0.15 | 100 | |
| 20260905224831 | 92 | 7 | 0.0 | 6.0 | 0.00 | 0.18 | 0.15 | 100 | |
| 20260905224331 | 91 | 28 | 2.0 | 7.0 | 0.00 | 0.18 | 0.15 | 100 | |
| 20260905223831 | 93 | 350 | 7.0 | 9.0 | 0.00 | 0.18 | 0.15 | 100 | |
| 20260905223331 | 93 | 334 | 3.0 | 7.0 | 0.00 | 0.18 | 0.15 | 100 | |
| 20260905222831 | 95 | 348 | 3.0 | 8.0 | 0.00 | 0.18 | 0.15 | 100 | |
| 20260905222331 | 94 | 7 | 4.0 | 6.0 | 0.00 | 0.18 | 0.15 | 100 | |
| 20260905221831 | 94 | 8 | 1.0 | 5.0 | 0.00 | 0.18 | 0.15 | 100 | |
| 20260905221331 | 95 | 33 | 2.0 | 6.0 | 0.00 | 0.18 | 0.15 | 100 | |
| 20260905220831 | 94 | 354 | 3.0 | 9.0 | 0.00 | 0.18 | 0.15 | 100 | |
| 20260905220331 | 94 | 77 | 3.0 | 8.0 | 0.00 | 0.18 | 0.15 | 100 | |
| 20260905215831 | 93 | 358 | 3.0 | 6.0 | 0.00 | 0.18 | 0.15 | 100 | |
| 20260905215331 | 95 | 67 | 1.0 | 5.0 | 0.00 | 0.18 | 0.15 | 100 | |
| 20260905214831 | 95 | 36 | 2.0 | 8.0 | 0.00 | 0.18 | 0.15 | 100 | |
| 20260905214331 | 95 | 338 | 5.0 | 8.0 | 0.00 | 0.18 | 0.15 | 100 | |
| 20260905213831 | 95 | 347 | 4.0 | 8.0 | 0.00 | 0.18 | 0.15 | 100 | |
| 20260905213331 | 95 | 306 | 1.0 | 8.0 | 0.00 | 0.18 | 0.15 | 100 | |
| 20260905212831 | 95 | 84 | 1.0 | 7.0 | 0.00 | 0.18 | 0.15 | 100 | |
| 20260905212331 | 95 | 337 | 5.0 | 7.0 | 0.00 | 0.18 | 0.15 | 100 | |
| 20260905211831 | 95 | 30 | 4.0 | 8.0 | 0.00 | 0.18 | 0.15 | 100 | |
| 20260905211331 | 95 | 358 | 2.0 | 9.0 | 0.00 | 0.18 | 0.15 | 100 | |
| 20260905210831 | 95 | 28 | 4.0 | 8.0 | 0.00 | 0.18 | 0.15 | 100 | |
| 20260905210331 | 95 | 337 | 3.0 | 9.0 | 0.00 | 0.18 | 0.15 | 100 | |
| 20260905205831 | 96 | 306 | 5.0 | 7.0 | 0.00 | 0.18 | 0.15 | 100 | |
| 20260905205331 | 95 | 54 | 0.0 | 6.0 | 0.00 | 0.18 | 0.15 | 100 | |
| 20260905204831 | 96 | 5 | 6.0 | 9.0 | 0.00 | 0.18 | 0.15 | 100 | |
| 20260905204331 | 95 | 324 | 7.0 | 10.0 | 0.00 | 0.18 | 0.15 | 100 | |
| 20260905203831 | 95 | 23 | 1.0 | 8.0 | 0.00 | 0.18 | 0.15 | 100 | |
| 20260905203331 | 95 | 313 | 5.0 | 9.0 | 0.00 | 0.18 | 0.15 | 100 | |
| 20260905202831 | 97 | 302 | 3.0 | 6.0 | 0.00 | 0.18 | 0.15 | 100 | |
| 20260905202331 | 97 | 261 | 6.0 | 8.0 | 0.00 | 0.18 | 0.15 | 100 | |
| 20260905201831 | 96 | 310 | 7.0 | 9.0 | 0.00 | 0.18 | 0.15 | 100 | |
| 20260905201331 | 96 | 8 | 1.0 | 8.0 | 0.00 | 0.18 | 0.15 | 100 | |
| 20260905200831 | 97 | 298 | 6.0 | 7.0 | 0.00 | 0.18 | 0.15 | 100 | |
| 20260905200331 | 96 | 320 | 3.0 | 8.0 | 0.00 | 0.18 | 0.15 | 100 | |
| 20260905195831 | 96 | 324 | 2.0 | 8.0 | 0.00 | 0.18 | 0.15 | 100 | |
| 20260905195331 | 96 | 317 | 4.0 | 9.0 | 0.00 | 0.18 | 0.15 | 100 | |
| 20260905194831 | 98 | 352 | 1.0 | 6.0 | 0.00 | 0.18 | 0.15 | 100 | |
| 20260905194331 | 98 | 336 | 3.0 | 6.0 | 0.00 | 0.18 | 0.15 | 100 | |
| 20260905193831 | 96 | 270 | 3.0 | 8.0 | 0.00 | 0.18 | 0.15 | 100 | |
| 20260905193331 | 97 | 291 | 3.0 | 10.0 | 0.00 | 0.18 | 0.15 | 100 | |
| 20260905192831 | 97 | 274 | 4.0 | 5.0 | 0.00 | 0.18 | 0.15 | 100 | |
| 20260905192331 | 97 | 310 | 1.0 | 4.0 | 0.00 | 0.18 | 0.15 | 100 | |
| 20260905191831 | 96 | 333 | 0.0 | 8.0 | 0.00 | 0.18 | 0.15 | 100 | |
| 20260905191331 | 96 | 305 | 4.0 | 7.0 | 0.00 | 0.18 | 0.15 | 100 | |
| 20260905190831 | 97 | 270 | 4.0 | 7.0 | 0.00 | 0.18 | 0.15 | 100 | |
| 20260905190331 | 96 | 244 | 1.0 | 5.0 | 0.00 | 0.18 | 0.15 | 100 | |
| 20260905185331 | 96 | 262 | 2.0 | 9.0 | 0.00 | 0.18 | 0.15 | 100 | |
| 20260905184831 | 96 | 285 | 3.0 | 8.0 | 0.00 | 0.18 | 0.15 | 100 | |
| 20260905184331 | 95 | 288 | 1.0 | 4.0 | 0.00 | 0.18 | 0.15 | 100 | |
| 20260905183831 | 95 | 300 | 2.0 | 9.0 | 0.00 | 0.18 | 0.15 | 100 | |
| 20260905183331 | 95 | 277 | 3.0 | 11.0 | 0.00 | 0.18 | 0.15 | 100 | |
| 20260905182831 | 95 | 247 | 4.0 | 10.0 | 0.00 | 0.18 | 0.15 | 100 | |
| 20260905182331 | 94 | 295 | 1.0 | 7.0 | 0.00 | 0.18 | 0.15 | 100 | |
| 20260905181831 | 95 | 307 | 1.0 | 7.0 | 0.00 | 0.18 | 0.15 | 100 | |
| 20260905181331 | 94 | 258 | 2.0 | 7.0 | 0.00 | 0.18 | 0.15 | 100 | |
| 20260905180831 | 95 | 277 | 4.0 | 8.0 | 0.00 | 0.18 | 0.15 | 100 | |
| 20260905180331 | 94 | 275 | 3.0 | 6.0 | 0.00 | 0.19 | 0.15 | 100 | |
| 20260905175831 | 93 | 232 | 1.0 | 8.0 | 0.00 | 0.19 | 0.15 | 100 | |
| 20260905175331 | 93 | 285 | 0.0 | 8.0 | 0.00 | 0.19 | 0.15 | 100 | |
| 20260905174831 | 93 | 272 | 4.0 | 8.0 | 0.00 | 0.19 | 0.15 | 100 | |
| 20260905174331 | 94 | 236 | 3.0 | 8.0 | 0.00 | 0.19 | 0.15 | 100 | |
| 20260905173831 | 93 | 272 | 0.0 | 7.0 | 0.00 | 0.19 | 0.15 | 100 | |
| 20260905173331 | 94 | 306 | 2.0 | 6.0 | 0.00 | 0.19 | 0.15 | 100 | |
| 20260905172831 | 94 | 293 | 0.0 | 6.0 | 0.00 | 0.19 | 0.15 | 100 | |
| 20260905172331 | 92 | 35 | 0.0 | 2.0 | 0.00 | 0.19 | 0.15 | 100 | |
| 20260905171831 | 92 | 285 | 0.0 | 3.0 | 0.00 | 0.19 | 0.15 | 100 | |
| 20260905171331 | 93 | 236 | 3.0 | 8.0 | 0.00 | 0.19 | 0.15 | 100 | |
| 20260905170831 | 93 | 303 | 3.0 | 5.0 | 0.00 | 0.19 | 0.15 | 100 | |
| 20260905170331 | 91 | 265 | 2.0 | 7.0 | 0.00 | 0.21 | 0.15 | 100 | |
| 20260905165831 | 91 | 258 | 3.0 | 9.0 | 0.00 | 0.21 | 0.15 | 100 | |
| 20260905165331 | 90 | 230 | 0.0 | 8.0 | 0.00 | 0.21 | 0.15 | 100 | |
| 20260905164831 | 90 | 260 | 5.0 | 8.0 | 0.00 | 0.21 | 0.15 | 100 | |
| 20260905164331 | 90 | 285 | 5.0 | 8.0 | 0.00 | 0.21 | 0.15 | 100 | |
| 20260905163831 | 89 | 265 | 5.0 | 8.0 | 0.00 | 0.21 | 0.15 | 100 | |
| 20260905163331 | 89 | 289 | 1.0 | 7.0 | 0.00 | 0.21 | 0.15 | 100 | |
| 20260905162831 | 88 | 268 | 2.0 | 8.0 | 0.00 | 0.21 | 0.15 | 100 | |
| 20260905162331 | 87 | 264 | 5.0 | 9.0 | 0.00 | 0.21 | 0.15 | 100 | |
| 20260905161831 | 87 | 278 | 8.0 | 8.0 | 0.00 | 0.21 | 0.15 | 100 | |
| 20260905161331 | 88 | 52 | 0.0 | 7.0 | 0.00 | 0.21 | 0.15 | 100 | |
| 20260905160831 | 87 | 253 | 5.0 | 9.0 | 0.00 | 0.21 | 0.15 | 100 | |
| 20260905160331 | 87 | 68 | 0.0 | 9.0 | 0.00 | 0.21 | 0.15 | 100 | |
| 20260905155831 | 87 | 293 | 4.0 | 8.0 | 0.00 | 0.21 | 0.15 | 100 | |
| 20260905155331 | 87 | 196 | 3.0 | 7.0 | 0.00 | 0.21 | 0.15 | 100 | |
| 20260905154832 | 86 | 227 | 0.0 | 9.0 | 0.00 | 0.21 | 0.15 | 100 | |
| 20260905154331 | 86 | 241 | 2.0 | 7.0 | 0.00 | 0.21 | 0.15 | 100 | |
| 20260905153831 | 86 | 275 | 5.0 | 6.0 | 0.00 | 0.21 | 0.15 | 100 | |
| 20260905153331 | 84 | 268 | 4.0 | 7.0 | 0.00 | 0.21 | 0.15 | 100 | |
| 20260905152831 | 84 | 191 | 2.0 | 10.0 | 0.00 | 0.21 | 0.15 | 100 | |
| 20260905152331 | 84 | 188 | 2.0 | 6.0 | 0.00 | 0.21 | 0.15 | 100 | |
| 20260905151831 | 82 | 188 | 2.0 | 7.0 | 0.00 | 0.21 | 0.15 | 100 | |
| 20260905151331 | 82 | 163 | 6.0 | 6.0 | 0.00 | 0.21 | 0.15 | 100 | |
| 20260905150831 | 82 | 302 | 0.0 | 8.0 | 0.00 | 0.21 | 0.15 | 100 | |
| 20260905150331 | 82 | 56 | 2.0 | 6.0 | 0.00 | 0.21 | 0.15 | 100 | |
| 20260905145831 | 81 | 239 | 3.0 | 5.0 | 0.00 | 0.21 | 0.15 | 100 | |
| 20260905145331 | 80 | 157 | 5.0 | 9.0 | 0.00 | 0.21 | 0.15 | 100 | |
| 20260905144831 | 79 | 118 | 9.0 | 9.0 | 0.00 | 0.21 | 0.15 | 100 | |
| 20260905144332 | 78 | 123 | 3.0 | 6.0 | 0.00 | 0.21 | 0.15 | 100 | |
| 20260905143831 | 78 | 237 | 3.0 | 6.0 | 0.00 | 0.21 | 0.15 | 100 | |
| 20260905143331 | 77 | 222 | 4.0 | 7.0 | 0.00 | 0.21 | 0.15 | 100 | |
| 20260905142831 | 77 | 210 | 0.0 | 7.0 | 0.00 | 0.21 | 0.15 | 100 | |
| 20260905142331 | 76 | 56 | 3.0 | 4.0 | 0.00 | 0.21 | 0.15 | 100 | |
| 20260905141831 | 75 | 78 | 0.0 | 5.0 | 0.00 | 0.21 | 0.15 | 100 | |
| 20260905141331 | 76 | 182 | 5.0 | 9.0 | 0.00 | 0.21 | 0.15 | 100 | |
| 20260905140831 | 75 | 78 | 0.0 | 7.0 | 0.00 | 0.21 | 0.15 | 100 | |
| 20260905140331 | 75 | 236 | 1.0 | 6.0 | 0.01 | 0.21 | 0.15 | 100 | |
| 20260905135831 | 74 | 156 | 3.0 | 7.0 | 0.02 | 0.21 | 0.15 | 100 | |
| 20260905135331 | 73 | 227 | 0.0 | 4.0 | 0.02 | 0.21 | 0.15 | 100 | |
| 20260905134831 | 72 | 129 | 3.0 | 7.0 | 0.03 | 0.21 | 0.15 | 100 | |
| 20260905134331 | 71 | 73 | 2.0 | 6.0 | 0.03 | 0.21 | 0.15 | 100 | |
| 20260905133831 | 70 | 46 | 3.0 | 4.0 | 0.03 | 0.21 | 0.15 | 100 | |
| 20260905133332 | 70 | 99 | 2.0 | 7.0 | 0.03 | 0.21 | 0.15 | 100 | |
| 20260905132831 | 70 | 123 | 2.0 | 5.0 | 0.05 | 0.21 | 0.15 | 100 | |
| 20260905132331 | 69 | 77 | 3.0 | 7.0 | 0.06 | 0.21 | 0.15 | 100 | |
| 20260905131831 | 69 | 87 | 6.0 | 10.0 | 0.07 | 0.21 | 0.15 | 100 | |
| 20260905131331 | 70 | 64 | 6.0 | 11.0 | 0.14 | 0.21 | 0.15 | 100 | |
| 20260905130832 | 69 | 210 | 4.0 | 13.0 | 0.14 | 0.21 | 0.15 | 100 | |
| 20260905130332 | 69 | 42 | 5.0 | 11.0 | 0.14 | 0.20 | 0.14 | 100 | |
| 20260905125832 | 69 | 74 | 9.0 | 11.0 | 0.13 | 0.19 | 0.13 | 100 | |
| 20260905125332 | 69 | 68 | 2.0 | 13.0 | 0.14 | 0.19 | 0.13 | 100 | |
| 20260905124832 | 69 | 105 | 5.0 | 14.0 | 0.15 | 0.18 | 0.12 | 100 | |
| 20260905124332 | 69 | 36 | 11.0 | 17.0 | 0.15 | 0.18 | 0.12 | 100 | |
| 20260905123832 | 69 | 95 | 11.0 | 18.0 | 0.15 | 0.18 | 0.12 | 100 | |
| 20260905123332 | 69 | 80 | 6.0 | 13.0 | 0.15 | 0.18 | 0.12 | 100 | |
| 20260905122832 | 69 | 39 | 6.0 | 17.0 | 0.13 | 0.16 | 0.10 | 100 | |
| 20260905122332 | 69 | 39 | 7.0 | 17.0 | 0.12 | 0.15 | 0.09 | 100 | |
| 20260905121832 | 69 | 52 | 8.0 | 18.0 | 0.09 | 0.12 | 0.06 | 100 | |
| 20260905121332 | 72 | 40 | 11.0 | 11.0 | 0.04 | 0.07 | 0.01 | 100 | |
| 20260905120832 | 71 | 330 | 4.0 | 17.0 | 0.04 | 0.07 | 0.01 | 100 | |
| 20260905120332 | 72 | 347 | 10.0 | 13.0 | 0.03 | 0.06 | 0.06 | 100 | |
| 20260905115832 | 71 | 326 | 3.0 | 6.0 | 0.03 | 0.06 | 0.06 | 100 | |
| 20260905115332 | 73 | 322 | 1.0 | 7.0 | 0.02 | 0.05 | 0.05 | 100 | |
| 20260905114832 | 73 | 288 | 3.0 | 8.0 | 0.00 | 0.03 | 0.03 | 100 | |
| 20260905114332 | 74 | 334 | 5.0 | 10.0 | 0.00 | 0.03 | 0.03 | 100 | |
| 20260905113832 | 73 | 313 | 4.0 | 9.0 | 0.00 | 0.03 | 0.03 | 100 | |
| 20260905113332 | 74 | 47 | 5.0 | 10.0 | 0.00 | 0.03 | 0.03 | 100 | |
| 20260905112832 | 74 | 337 | 8.0 | 18.0 | 0.00 | 0.03 | 0.03 | 100 | |
| 20260905112332 | 75 | 82 | 6.0 | 18.0 | 0.00 | 0.03 | 0.03 | 100 | |
| 20260905111832 | 75 | 2 | 6.0 | 20.0 | 0.00 | 0.03 | 0.03 | 100 | |
| 20260905111332 | 75 | 4 | 7.0 | 16.0 | 0.00 | 0.03 | 0.03 | 100 | |
| 20260905110832 | 75 | 57 | 10.0 | 16.0 | 0.00 | 0.03 | 0.03 | 100 | |
| 20260905110332 | 75 | 358 | 5.0 | 16.0 | 0.00 | 0.03 | 0.03 | 100 | |
| 20260905105832 | 76 | 1 | 13.0 | 23.0 | 0.00 | 0.03 | 0.03 | 100 | |
| 20260905105332 | 78 | 15 | 6.0 | 23.0 | 0.00 | 0.03 | 0.03 | 100 | |
| 20260905104832 | 79 | 336 | 15.0 | 31.0 | 0.00 | 0.03 | 0.03 | 100 | |
| 20260905104332 | 78 | 1 | 6.0 | 10.0 | 0.00 | 0.03 | 0.03 | 100 | |
| 20260905103832 | 79 | 36 | 3.0 | 12.0 | 0.00 | 0.03 | 0.03 | 100 | |
| 20260905103332 | 80 | 15 | 0.0 | 2.0 | 0.00 | 0.03 | 0.03 | 100 | |
| 20260905102832 | 80 | 334 | 1.0 | 2.0 | 0.00 | 0.03 | 0.03 | 100 | |
| 20260905102332 | 79 | 203 | 0.0 | 1.0 | 0.00 | 0.03 | 0.03 | 100 | |
| 20260905101832 | 80 | 265 | 0.0 | 2.0 | 0.00 | 0.03 | 0.03 | 100 | |
| 20260905101332 | 79 | 274 | 0.0 | 1.0 | 0.00 | 0.03 | 0.03 | 100 | |
| 20260905100832 | 79 | 232 | 0.0 | 1.0 | 0.00 | 0.03 | 0.03 | 100 | |
| 20260905100332 | 80 | 260 | 0.0 | 1.0 | 0.00 | 0.03 | 0.03 | 100 | |
| 20260905095832 | 80 | 291 | 1.0 | 2.0 | 0.00 | 0.03 | 0.03 | 100 | |
| 20260905095332 | 79 | 289 | 0.0 | 2.0 | 0.00 | 0.03 | 0.03 | 100 | |
| 20260905094832 | 79 | 315 | 0.0 | 2.0 | 0.00 | 0.03 | 0.03 | 100 | |
| 20260905094332 | 78 | 267 | 0.0 | 2.0 | 0.00 | 0.03 | 0.03 | 100 | |
| 20260905093832 | 78 | 247 | 0.0 | 0.0 | 0.00 | 0.03 | 0.03 | 100 | |
| 20260905093332 | 78 | 254 | 0.0 | 0.0 | 0.00 | 0.03 | 0.03 | 100 | |
| 20260905092832 | 78 | 254 | 0.0 | 0.0 | 0.00 | 0.03 | 0.03 | 100 | |
| 20260905092332 | 79 | 254 | 0.0 | 0.0 | 0.00 | 0.03 | 0.03 | 100 | |
| 20260905091832 | 80 | 254 | 0.0 | 0.0 | 0.00 | 0.03 | 0.03 | 100 | |
| 20260905091332 | 79 | 254 | 0.0 | 2.0 | 0.00 | 0.03 | 0.03 | 100 | |
| 20260905090832 | 80 | 220 | 0.0 | 1.0 | 0.00 | 0.03 | 0.03 | 100 | |
| 20260905090332 | 80 | 293 | 0.0 | 3.0 | 0.00 | 0.03 | 0.03 | 100 | |
| 20260905085832 | 80 | 299 | 3.0 | 3.0 | 0.00 | 0.03 | 0.03 | 100 | |
| 20260905085332 | 80 | 241 | 0.0 | 4.0 | 0.00 | 0.03 | 0.03 | 100 | |
| 20260905084832 | 80 | 295 | 0.0 | 3.0 | 0.00 | 0.03 | 0.03 | 100 | |
| 20260905084332 | 80 | 262 | 0.0 | 4.0 | 0.00 | 0.03 | 0.03 | 100 | |
| 20260905083832 | 80 | 315 | 0.0 | 5.0 | 0.00 | 0.03 | 0.03 | 100 | |
| 20260905083332 | 80 | 282 | 0.0 | 3.0 | 0.00 | 0.03 | 0.03 | 100 | |
| 20260905082832 | 79 | 292 | 1.0 | 5.0 | 0.00 | 0.03 | 0.03 | 100 | |
| 20260905082332 | 79 | 258 | 1.0 | 2.0 | 0.00 | 0.03 | 0.03 | 100 | |
| 20260905081832 | 79 | 284 | 1.0 | 2.0 | 0.00 | 0.03 | 0.03 | 100 | |
| 20260905081332 | 79 | 275 | 0.0 | 2.0 | 0.00 | 0.03 | 0.03 | 100 | |
| 20260905080832 | 78 | 275 | 2.0 | 2.0 | 0.00 | 0.03 | 0.03 | 100 | |
| 20260905080332 | 78 | 234 | 0.0 | 1.0 | 0.00 | 0.03 | 0.03 | 100 | |
| 20260905075832 | 78 | 234 | 0.0 | 1.0 | 0.00 | 0.03 | 0.03 | 100 | |
| 20260905075332 | 78 | 243 | 1.0 | 2.0 | 0.00 | 0.03 | 0.03 | 100 | |
| 20260905074832 | 77 | 264 | 0.0 | 0.0 | 0.00 | 0.03 | 0.03 | 100 | |
| 20260905074332 | 78 | 247 | 0.0 | 0.0 | 0.00 | 0.03 | 0.03 | 100 | |
| 20260905073832 | 78 | 247 | 0.0 | 0.0 | 0.00 | 0.03 | 0.03 | 100 | |
| 20260905073332 | 78 | 247 | 0.0 | 0.0 | 0.00 | 0.03 | 0.03 | 100 | |
| 20260905072832 | 78 | 247 | 0.0 | 0.0 | 0.00 | 0.03 | 0.03 | 100 | |
| 20260905072332 | 78 | 215 | 0.0 | 1.0 | 0.00 | 0.03 | 0.03 | 100 | |
| 20260905071832 | 79 | 213 | 0.0 | 1.0 | 0.00 | 0.03 | 0.03 | 100 | |
| 20260905071332 | 79 | 233 | 0.0 | 1.0 | 0.00 | 0.03 | 0.03 | 100 | |
| 20260905070832 | 79 | 248 | 0.0 | 1.0 | 0.00 | 0.03 | 0.03 | 100 | |
| 20260905070332 | 79 | 240 | 0.0 | 1.0 | 0.00 | 0.03 | 0.03 | 100 | |
| 20260905065832 | 79 | 271 | 0.0 | 2.0 | 0.00 | 0.03 | 0.03 | 100 | |
| 20260905065332 | 80 | 246 | 1.0 | 6.0 | 0.00 | 0.03 | 0.03 | 100 | |
| 20260905064832 | 79 | 310 | 0.0 | 3.0 | 0.00 | 0.03 | 0.03 | 100 | |
| 20260905064332 | 79 | 236 | 1.0 | 2.0 | 0.00 | 0.03 | 0.03 | 100 | |
| 20260905063832 | 79 | 241 | 1.0 | 2.0 | 0.00 | 0.03 | 0.03 | 100 | |
| 20260905063332 | 79 | 234 | 1.0 | 3.0 | 0.00 | 0.03 | 0.03 | 100 | |
| 20260905062832 | 80 | 237 | 1.0 | 2.0 | 0.00 | 0.03 | 0.03 | 100 | |
| 20260905062332 | 80 | 358 | 0.0 | 8.0 | 0.00 | 0.03 | 0.03 | 100 | |
| 20260905061832 | 79 | 295 | 1.0 | 8.0 | 0.00 | 0.03 | 0.03 | 100 | |
| 20260905061332 | 79 | 23 | 0.0 | 8.0 | 0.00 | 0.03 | 0.03 | 100 | |
| 20260905060832 | 78 | 358 | 0.0 | 8.0 | 0.00 | 0.03 | 0.03 | 100 | |
| 20260905060332 | 77 | 296 | 0.0 | 0.0 | 0.00 | 0.03 | 0.03 | 100 | |
| 20260905055832 | 78 | 296 | 0.0 | 0.0 | 0.00 | 0.03 | 0.03 | 100 | |
| 20260905055332 | 78 | 296 | 0.0 | 0.0 | 0.00 | 0.03 | 0.03 | 100 | |
| 20260905054832 | 79 | 358 | 0.0 | 5.0 | 0.00 | 0.03 | 0.03 | 100 | |
| 20260905054332 | 78 | 358 | 0.0 | 0.0 | 0.00 | 0.03 | 0.03 | 100 | |
| 20260905053832 | 78 | 358 | 0.0 | 1.0 | 0.00 | 0.03 | 0.03 | 100 | |
| 20260905053332 | 79 | 358 | 0.0 | 0.0 | 0.00 | 0.03 | 0.03 | 100 |